Temp
22 22 22 21 22 21 20 20 20 20 20 20 19 19 19 18 18 18 18 18 17 17 17 17 16 16 15 16 15 15 15 15 16 16 15 15 16 16 16 16 16 16
22 22 22 21 22 22 21 20 20 20 20 20 19 19 19 19 18 18 18 18 17 17 17 16 16 16 16 15 15 15 15 15 15 16 15 15 15 16 16 16 16 15
22 22 22 21 21 22 22 21 21 21 20 20 20 19 19 18 18 18 18 18 17 17 17 16 16 16 16 16 15 15 15 15 15 15 16 15 15 15 16 16 16 16
22 22 22 21 21 21 21 21 21 21 21 20 20 19 19 19 18 18 17 17 17 17 17 17 17 16 17 17 17 15 15 15 15 15 15 15 15 15 15 16 16 16
23 22 22 21 21 21 21 21 22 22 21 20 19 19 20 20 19 19 18 17 17 18 18 18 17 16 16 17 17 16 15 15 15 15 15 15 15 15 15 15 15 15
23 22 22 21 21 21 21 21 21 21 21 20 19 20 21 20 20 19 19 18 18 19 19 18 18 17 17 17 17 17 16 15 15 15 15 15 15 15 16 15 15 15
23 23 22 22 22 21 21 21 21 21 21 20 20 21 21 20 20 20 20 21 21 20 19 19 18 18 17 17 17 17 17 16 15 15 15 15 15 15 15 15 15 15
23 23 23 22 22 21 21 21 21 21 21 21 21 21 21 21 21 21 21 22 22 21 20 20 19 19 18 18 18 18 18 16 15 15 15 15 15 15 15 15 15 15
24 23 23 23 22 21 21 21 21 21 21 22 22 22 22 22 22 23 22 22 21 21 21 20 19 18 18 18 18 18 17 16 15 15 15 15 15 15 15 15 15 15
24 24 23 23 22 21 21 21 21 21 21 22 22 22 22 23 23 23 22 22 22 21 21 20 19 18 18 18 17 17 17 16 16 15 15 15 15 15 15 15 15 15
24 24 23 23 22 22 23 22 21 21 22 23 23 23 23 23 23 23 22 22 21 21 20 20 19 18 18 18 17 17 16 16 15 15 15 16 16 15 15 15 15 15
25 24 23 23 23 24 24 23 22 22 23 23 23 24 24 23 22 22 22 21 21 21 20 20 19 19 18 18 18 17 16 15 15 15 16 16 17 16 15 15 15 15
24 25 24 24 25 25 24 24 24 23 22 23 24 24 23 23 22 22 22 21 21 21 20 20 20 19 17 17 18 17 16 15 15 15 16 16 17 17 17 16 15 15
23 24 24 24 25 25 25 25 25 24 23 24 25 24 23 23 22 22 21 21 21 21 20 20 19 18 17 17 17 16 16 15 15 15 16 16 17 18 17 17 16 15
22 23 23 23 23 24 25 25 24 24 24 24 25 24 23 23 22 22 21 21 21 20 20 19 19 18 18 18 18 17 16 16 15 15 16 16 17 18 17 18 17 16
22 22 22 22 23 24 25 25 24 24 24 24 23 23 23 22 22 21 20 20 20 20 19 19 19 18 18 18 18 17 17 16 15 15 16 16 17 18 17 17 17 16
22 22 22 22 22 24 25 24 23 23 23 22 22 22 22 22 21 20 19 19 19 19 19 19 18 18 18 18 18 18 17 16 15 15 15 16 17 17 17 17 17 16
22 22 22 22 22 23 24 23 22 22 21 21 21 21 21 21 20 19 19 18 18 18 18 18 17 17 18 18 18 17 16 15 15 15 14 15 16 17 17 16 16 15
22 22 22 22 23 23 22 22 21 21 21 20 20 20 20 20 19 18 18 17 17 17 17 17 16 17 18 18 17 17 16 15 14 14 15 15 16 17 17 16 15 15
22 22 22 22 22 22 22 22 21 21 21 20 19 19 19 18 18 17 17 17 17 17 17 16 15 16 17 18 17 16 16 15 14 14 15 15 15 16 16 16 15 15
21 21 21 22 21 21 22 22 21 20 20 19 18 18 18 17 17 17 16 16 16 16 16 16 15 15 16 17 16 16 15 15 14 14 15 15 15 16 16 15 15 14
20 20 21 21 20 20 22 22 20 19 19 18 18 18 17 17 16 16 16 16 16 16 16 15 15 15 15 15 16 15 15 15 15 15 14 14 15 15 15 15 14 14
20 20 20 20 20 22 23 22 20 19 18 18 18 17 17 17 17 16 16 16 16 16 15 15 15 15 15 15 15 15 15 15 15 15 15 15 15 15 15 15 14 14
20 19 20 20 20 21 22 21 21 20 19 19 18 17 17 17 17 16 16 16 15 15 15 14 14 15 15 15 15 15 15 15 15 15 15 15 15 15 15 15 14 14
20 20 20 20 19 19 19 19 19 19 19 18 18 17 17 17 17 16 16 15 15 15 14 14 14 14 14 14 15 14 15 15 15 15 14 14 14 15 15 15 15 14
20 20 20 19 19 19 18 18 18 18 18 17 17 16 16 16 16 16 15 15 15 14 14 14 14 14 14 14 14 14 15 15 14 14 14 14 14 15 15 15 15 14
Height
1527 1529 1531 1533 1535 1537 1538 1539 1540 1542 1543 1544 1545 1546 1547 1549 1550 1551 1552 1553 1553 1554 1555 1556 1556 1556 1557 1557 1557 1557 1558 1558 1559 1560 1559 1560 1560 1560 1561 1561 1561 1561
1524 1526 1529 1531 1533 1534 1535 1537 1538 1540 1541 1542 1544 1545 1546 1547 1548 1549 1551 1552 1552 1553 1553 1554 1554 1555 1556 1556 1557 1556 1557 1557 1557 1558 1558 1559 1559 1560 1560 1560 1560 1560
1522 1524 1526 1528 1530 1531 1533 1535 1536 1537 1539 1541 1542 1544 1545 1546 1547 1548 1549 1550 1550 1550 1550 1551 1552 1552 1553 1554 1555 1556 1556 1556 1556 1557 1557 1557 1558 1558 1559 1559 1559 1559
1519 1521 1523 1525 1526 1528 1530 1532 1534 1535 1537 1539 1541 1543 1543 1544 1545 1546 1547 1547 1547 1547 1547 1547 1548 1549 1550 1551 1552 1554 1555 1555 1555 1556 1556 1556 1556 1556 1557 1557 1557 1557
1516 1518 1520 1522 1523 1526 1528 1529 1531 1533 1536 1538 1540 1541 1541 1542 1542 1543 1544 1544 1545 1545 1544 1544 1544 1546 1547 1547 1549 1551 1552 1554 1555 1555 1555 1555 1555 1555 1555 1556 1555 1556
1512 1515 1516 1519 1520 1523 1525 1527 1529 1531 1534 1536 1537 1538 1538 1539 1540 1540 1541 1541 1541 1541 1541 1541 1541 1542 1543 1544 1545 1547 1549 1551 1553 1553 1553 1553 1553 1554 1554 1554 1554 1554
1509 1511 1513 1516 1518 1520 1522 1525 1527 1529 1532 1533 1533 1533 1534 1536 1536 1536 1536 1536 1536 1535 1536 1537 1537 1537 1538 1539 1540 1543 1545 1547 1549 1551 1551 1551 1551 1551 1551 1552 1552 1553
1505 1508 1510 1513 1515 1518 1520 1522 1525 1526 1528 1528 1529 1531 1532 1532 1531 1530 1530 1529 1529 1529 1530 1531 1532 1533 1534 1534 1535 1537 1540 1542 1545 1546 1548 1549 1549 1549 1549 1549 1550 1551
1502 1505 1508 1510 1513 1515 1518 1519 1521 1522 1523 1524 1526 1528 1529 1528 1526 1524 1523 1523 1523 1524 1525 1527 1529 1530 1531 1531 1533 1534 1536 1539 1541 1542 1544 1546 1546 1547 1547 1547 1548 1549
1499 1502 1505 1508 1510 1513 1514 1515 1516 1517 1518 1520 1522 1521 1521 1520 1519 1517 1517 1517 1518 1520 1522 1524 1526 1528 1529 1530 1531 1533 1533 1535 1538 1538 1540 1542 1543 1545 1545 1546 1546 1547
1495 1498 1501 1504 1507 1507 1507 1509 1511 1511 1512 1513 1514 1512 1510 1511 1512 1513 1513 1514 1515 1517 1519 1521 1523 1525 1527 1528 1530 1531 1532 1533 1536 1537 1537 1538 1540 1542 1544 1544 1545 1545
1491 1494 1497 1500 1501 1501 1502 1504 1506 1506 1505 1506 1507 1507 1506 1508 1510 1511 1511 1512 1513 1515 1516 1518 1520 1522 1524 1526 1527 1529 1530 1532 1533 1534 1535 1535 1536 1539 1541 1543 1543 1543
1486 1490 1492 1493 1494 1496 1498 1499 1500 1502 1501 1501 1503 1504 1505 1505 1507 1507 1507 1508 1510 1511 1513 1514 1516 1518 1521 1522 1524 1526 1527 1529 1530 1531 1532 1532 1532 1534 1538 1540 1541 1542
1483 1485 1487 1488 1490 1492 1494 1494 1496 1498 1498 1497 1499 1501 1502 1502 1501 1501 1503 1505 1506 1507 1509 1511 1513 1515 1517 1519 1521 1523 1524 1526 1526 1527 1528 1529 1528 1529 1532 1535 1538 1540
1480 1481 1482 1484 1486 1487 1488 1490 1492 1494 1493 1493 1495 1497 1498 1499 1499 1498 1500 1501 1502 1503 1506 1508 1509 1510 1512 1515 1517 1519 1521 1523 1524 1525 1526 1526 1525 1525 1526 1530 1534 1537
1475 1477 1478 1480 1481 1482 1484 1486 1488 1490 1491 1491 1493 1494 1495 1496 1496 1496 1497 1498 1498 1500 1502 1504 1504 1505 1507 1511 1514 1516 1517 1519 1521 1523 1525 1525 1523 1523 1524 1525 1528 1532
1472 1473 1474 1475 1477 1478 1480 1483 1485 1487 1489 1489 1490 1491 1492 1493 1493 1494 1494 1495 1496 1497 1498 1499 1500 1501 1503 1507 1511 1513 1515 1516 1519 1521 1522 1523 1522 1522 1523 1523 1524 1528
1468 1469 1470 1472 1473 1475 1478 1480 1482 1484 1485 1486 1487 1488 1489 1489 1490 1490 1491 1493 1495 1496 1495 1496 1496 1497 1500 1505 1508 1510 1512 1514 1516 1518 1519 1520 1521 1521 1522 1522 1523 1525
1464 1466 1467 1469 1471 1473 1475 1477 1479 1480 1481 1482 1484 1485 1485 1485 1486 1487 1488 1490 1493 1494 1494 1494 1493 1493 1497 1502 1505 1507 1509 1511 1513 1515 1516 1518 1519 1519 1519 1521 1522 1523
1461 1463 1465 1467 1468 1470 1471 1473 1475 1476 1478 1479 1481 1481 1482 1482 1482 1484 1485 1487 1489 1491 1491 1492 1491 1489 1492 1497 1500 1503 1506 1507 1509 1511 1514 1515 1516 1516 1517 1519 1520 1520
1458 1460 1463 1465 1466 1468 1468 1470 1472 1473 1475 1477 1478 1478 1479 1478 1479 1481 1482 1484 1485 1487 1488 1489 1488 1488 1490 1495 1498 1500 1503 1504 1505 1507 1510 1512 1513 1513 1514 1516 1517 1518
1456 1458 1460 1462 1464 1466 1467 1469 1470 1471 1473 1474 1475 1476 1476 1476 1476 1477 1479 1481 1482 1483 1484 1484 1484 1486 1490 1494 1497 1499 1501 1503 1503 1503 1506 1509 1510 1510 1511 1513 1515 1516
1454 1456 1458 1461 1463 1464 1466 1468 1469 1470 1471 1472 1472 1474 1474 1475 1474 1474 1475 1477 1479 1480 1480 1481 1482 1485 1488 1491 1494 1496 1499 1500 1501 1501 1503 1505 1506 1507 1508 1510 1512 1513
1453 1455 1457 1460 1462 1463 1465 1466 1467 1468 1469 1470 1470 1471 1472 1472 1472 1472 1473 1474 1476 1478 1478 1479 1481 1484 1487 1489 1491 1494 1496 1498 1499 1500 1500 1501 1502 1504 1506 1507 1509 1511
1451 1454 1456 1459 1461 1462 1464 1465 1466 1467 1467 1468 1467 1468 1469 1470 1470 1471 1472 1472 1474 1476 1477 1477 1479 1482 1485 1488 1490 1492 1494 1496 1497 1497 1498 1499 1501 1503 1504 1505 1507 1508
1450 1452 1455 1457 1459 1461 1462 1464 1464 1465 1466 1466 1466 1465 1466 1467 1468 1470 1471 1472 1473 1474 1475 1477 1479 1481 1484 1487 1489 1491 1492 1493 1494 1495 1496 1498 1500 1501 1503 1503 1504 1504
Wind_Speed
27 27 26 25 24 23 22 21 21 19 18 16 14 12 11 12 11 11 11 12 10 8 8 10 11 11 10 10 11 11 10 9 7 8 8 7 7 7 7 7 7 7
29 27 26 26 26 26 24 23 22 20 18 16 15 13 12 12 11 11 12 12 11 10 10 11 11 11 10 10 10 11 11 10 9 8 8 8 8 8 8 8 8 8
30 29 28 28 27 27 26 24 23 21 18 17 17 15 14 13 12 12 12 13 13 13 12 11 11 11 11 10 11 11 11 10 10 9 10 10 10 10 9 9 9 9
32 31 30 30 28 26 25 26 25 23 21 18 17 17 16 15 13 12 12 14 14 14 13 12 12 12 12 11 11 12 11 11 11 10 11 11 10 10 10 10 11 11
32 32 32 32 31 28 25 25 25 24 22 19 18 18 18 17 16 13 12 14 15 13 12 12 12 13 13 12 12 12 12 12 12 11 12 11 11 11 11 11 12 12
33 33 34 33 32 30 26 24 23 23 22 20 20 21 20 20 18 16 15 16 16 15 14 13 14 14 14 13 12 11 11 13 13 13 13 12 11 11 11 12 13 12
35 34 35 34 32 30 27 24 21 21 21 21 23 23 21 21 20 19 20 20 19 19 17 17 17 16 15 15 14 13 12 13 15 15 14 13 12 12 12 13 13 13
38 36 35 34 33 30 27 23 21 21 21 23 25 24 23 24 25 25 27 26 24 23 21 21 22 20 19 17 17 16 14 15 17 17 16 15 14 14 14 13 13 13
39 37 36 35 33 29 25 23 23 24 24 24 25 25 26 29 32 32 32 31 29 27 25 24 24 23 21 19 19 18 16 17 18 16 14 16 16 15 14 12 12 13
40 38 37 34 30 28 27 27 27 28 28 26 26 29 32 35 37 36 35 34 33 31 28 26 25 25 22 20 20 21 19 19 19 16 15 16 16 14 13 12 13 14
40 38 36 33 30 31 34 33 31 31 32 31 33 37 40 41 40 39 37 34 33 31 28 26 26 26 23 20 22 23 21 20 20 19 18 17 16 14 13 13 15 15
41 39 36 35 35 38 37 35 35 35 36 37 39 41 44 43 41 40 39 36 34 32 30 27 28 27 24 21 22 23 23 22 20 20 20 17 14 13 12 13 15 16
39 39 38 38 40 41 40 39 40 38 38 42 43 42 43 43 42 43 42 40 38 36 34 31 29 29 26 23 23 23 23 22 21 20 20 17 13 11 11 13 14 16
34 36 39 40 40 41 41 43 43 40 42 47 47 44 43 43 45 46 45 42 40 39 38 34 31 31 29 25 24 25 24 22 21 21 20 17 14 11 11 13 16 18
30 32 35 37 39 41 42 43 42 43 46 49 47 45 46 46 46 47 45 42 40 40 39 36 34 33 31 28 28 28 27 22 20 21 21 18 16 16 17 19 20 20
31 30 30 31 35 39 40 40 42 44 45 46 45 45 45 45 46 46 45 43 42 42 40 38 37 36 33 30 29 30 29 25 21 22 22 18 18 20 23 25 23 21
29 29 29 29 32 35 33 31 33 36 37 39 41 43 44 45 45 45 43 41 40 42 42 41 39 37 35 32 30 30 29 26 24 23 21 18 19 22 25 26 24 21
28 30 31 31 31 31 28 23 22 26 30 32 36 39 41 43 44 44 43 39 33 33 38 40 38 38 37 32 31 31 29 26 25 24 20 19 21 23 25 25 22 18
30 32 31 30 30 26 21 20 20 23 26 27 30 33 35 38 41 39 38 35 30 28 32 32 34 38 38 32 32 33 30 27 27 24 21 22 24 26 27 24 19 18
29 31 30 28 25 18 16 18 20 21 23 23 25 28 29 32 32 28 26 29 29 30 31 30 31 36 37 35 34 34 30 28 27 25 24 25 27 29 29 24 19 19
23 26 27 23 17 15 15 17 18 18 18 18 18 20 20 22 22 21 23 28 29 30 31 31 33 33 33 33 34 32 29 28 27 26 26 27 29 31 31 27 22 21
20 20 21 18 16 17 18 18 17 16 16 15 15 15 17 19 19 18 21 26 28 30 31 33 36 35 30 29 33 31 28 27 27 26 26 28 31 33 32 28 23 22
20 18 17 17 17 20 21 20 18 16 15 15 15 15 17 20 21 18 18 23 28 31 32 33 36 34 30 29 32 32 28 27 28 27 27 30 33 32 31 27 22 21
19 17 16 16 17 19 19 19 18 16 16 16 17 18 18 20 22 22 21 23 26 29 30 31 31 31 29 28 28 27 26 25 26 27 29 32 33 32 30 27 24 23
19 17 15 15 16 15 13 13 13 13 13 15 17 19 19 19 21 23 24 24 23 24 26 28 28 29 27 26 24 23 22 23 25 28 31 32 31 28 27 26 26 25
18 18 17 15 15 14 11 11 11 11 12 13 15 17 18 18 18 20 23 22 21 22 23 24 26 26 25 24 22 21 22 24 25 28 30 30 28 25 24 24 25 26
Wind_Direction
222 223 222 220 218 217 218 221 222 223 222 221 220 213 206 205 206 207 210 220 225 218 215 220 226 226 219 227 227 212 211 214 215 233 237 228 229 230 231 236 237 240
222 222 221 219 219 219 219 220 220 222 223 219 218 215 211 209 205 205 207 212 218 217 216 220 228 233 227 227 230 222 218 214 208 222 235 233 231 235 240 245 249 252
221 222 223 221 219 219 220 221 221 222 222 220 220 220 218 213 208 206 205 206 210 212 215 221 226 235 238 229 226 228 226 220 213 215 229 237 236 238 243 247 252 256
221 222 223 222 222 223 222 221 222 223 222 221 223 225 225 221 216 213 209 208 209 209 218 229 225 228 242 239 228 228 228 226 226 219 223 235 240 242 243 243 247 248
222 223 224 225 227 229 224 220 222 224 223 221 223 228 231 229 230 233 226 219 219 221 230 241 230 219 232 243 237 230 225 227 233 230 226 231 241 247 249 250 252 251
222 223 225 228 231 230 225 222 223 223 222 220 223 230 235 236 240 247 244 238 241 245 246 243 233 224 229 239 242 238 228 222 228 234 234 231 234 242 247 252 258 257
224 225 228 231 233 232 229 225 223 224 223 221 224 231 235 237 243 251 252 251 248 246 244 237 234 232 227 231 243 252 244 226 220 225 232 234 236 240 243 247 252 256
226 228 231 233 234 232 228 223 223 227 226 223 228 234 238 242 247 251 253 251 245 241 238 236 237 233 228 236 249 254 245 226 218 221 227 231 234 237 240 243 247 252
227 229 231 235 234 229 223 222 225 229 228 227 233 239 244 249 251 250 250 248 245 243 240 237 234 229 232 247 252 244 233 221 219 223 226 229 232 235 239 242 243 247
226 227 230 230 227 223 225 226 228 231 230 229 233 239 244 248 248 247 246 245 244 244 241 235 229 227 235 244 237 232 230 223 220 220 218 225 234 236 238 241 241 245
226 226 226 224 220 225 232 230 226 231 235 233 234 239 242 245 245 244 242 242 243 243 241 236 230 230 236 235 225 227 228 222 219 219 220 228 236 234 234 239 241 244
227 226 223 223 225 229 230 226 225 231 236 237 236 238 243 246 246 243 241 242 244 245 243 238 233 233 234 231 226 225 222 217 217 223 228 231 231 232 239 246 249 253
226 227 225 228 233 234 231 230 233 234 235 240 241 240 242 245 245 244 242 243 245 246 244 240 236 234 230 227 226 222 218 216 217 223 229 225 219 225 240 250 258 262
217 222 226 230 234 238 238 239 239 235 235 243 247 244 243 245 246 246 243 242 243 244 244 241 238 234 230 227 225 219 215 217 218 221 224 219 213 220 236 250 258 260
205 211 220 224 227 234 241 242 240 237 241 247 250 249 249 248 248 247 246 243 241 241 241 240 238 234 231 228 225 218 214 215 217 220 220 216 219 226 231 241 253 260
203 207 213 219 224 232 239 242 240 241 244 248 249 249 248 247 246 247 247 244 241 240 240 238 235 232 230 228 224 218 215 214 217 221 222 222 228 231 227 230 244 258
203 208 213 219 228 237 245 248 245 245 246 247 248 247 247 247 247 246 244 242 241 241 240 236 231 229 230 228 222 218 216 214 216 220 222 225 230 231 229 231 240 252
201 209 217 224 233 242 250 252 248 247 248 247 246 248 250 251 250 246 243 240 236 235 237 234 228 228 232 229 221 217 213 210 214 218 221 228 233 232 232 237 242 248
205 212 219 228 237 242 242 243 244 245 247 248 248 250 253 254 252 247 243 239 232 229 229 226 223 226 231 228 218 214 211 210 215 221 225 233 238 235 235 241 247 249
209 214 219 228 234 229 220 227 234 239 244 247 249 250 252 254 251 244 239 236 231 228 226 219 217 224 230 227 218 213 212 210 214 224 231 236 242 239 236 242 251 256
205 211 217 219 213 204 207 215 220 229 236 238 241 245 246 249 246 237 234 233 228 226 225 220 219 222 225 222 215 213 213 212 219 233 237 236 241 240 237 243 254 263
200 203 208 203 194 196 206 212 216 222 227 228 234 239 240 245 246 237 231 230 226 224 224 221 221 224 223 219 216 215 218 222 229 236 235 233 237 238 236 242 257 270
197 192 192 189 191 198 203 209 217 221 223 227 232 236 236 241 247 244 232 226 224 225 224 222 224 228 229 224 221 221 225 229 233 234 232 233 236 236 236 243 258 274
186 183 184 186 192 200 204 209 215 218 221 226 228 230 231 233 238 240 234 227 224 224 223 222 228 234 232 224 221 221 224 229 234 234 233 234 236 237 238 246 259 273
177 177 182 189 197 205 209 214 220 219 221 226 231 234 236 238 241 241 237 231 227 227 225 225 232 236 228 217 215 219 226 234 236 232 232 236 238 240 246 254 263 273
175 177 181 190 200 205 208 218 229 231 229 235 241 241 242 248 254 254 248 239 231 226 225 226 231 230 219 213 218 227 234 237 234 232 235 239 241 246 256 261 266 275